[[{"header":{"parameterUnit":"m.s-1","parameterCategory":1,"la1":30.2991,"la2":30.254,"lo1":-89.0895,"lo2":-89.0444,"dy":0.0017,"dx":0.0017,"nx":28,"ny":28,"refTime":"2025-09-15T21:00:00:Z","depth":0,"parameterNumber":2,"parameterNumberName":"U-component_of_WINDS"},"data":[0,0,0,0,0,0,0,0,0,0,0,0,0,0,0,0,0,0,0,0,0,0,0,0,0,0,0,0,0,0,0,0,0,0,0,0,0,0,0,0,0,0,0,0,0,0,0,0,0,0,0,0,0,0,0,0,0,0,-0.7738,-0.7738,0,-0.7755,-0.7756,-0.7756,-0.7742,-0.7741,-0.774,-0.774,-0.776,-0.7761,-0.7762,0,0,0,0,0,0,0,0,0,0,0,0,0,-0.7694,-0.7695,-0.7738,-0.7738,-0.7738,-0.7755,-0.7756,-0.7756,-0.7742,-0.7741,-0.774,-0.774,-0.7759,-0.7761,-0.7762,0,0,0,0,0,0,0,0,0,0,0,0,0,-0.7712,-0.7695,-0.7738,-0.7733,-0.7733,-0.7755,-0.7756,-0.7756,-0.7742,-0.7741,-0.774,-0.7739,-0.7759,-0.776,-0.7762,-0.779,0,0,-0.7767,-0.7768,0,0,0,0,0,0,0,0,-0.7711,-0.7714,-0.7733,-0.7733,-0.7733,-0.7745,-0.7747,-0.7767,-0.7742,-0.7738,-0.774,-0.7739,-0.7756,-0.7758,-0.7763,-0.7791,-0.7792,-0.7767,-0.7768,-0.7769,-0.7769,0,0,0,0,0,0,0,-0.771,-0.7713,-0.7745,-0.7734,-0.7734,-0.7731,-0.7732,-0.7751,-0.7752,-0.7739,-0.7738,-0.774,-0.7755,-0.7761,-0.7763,-0.7792,-0.7767,-0.7769,-0.777,-0.777,-0.7846,-0.7847,0,0,0,0,0,0,-0.7709,-0.7712,-0.7744,-0.7745,-0.772,-0.7732,-0.7734,-0.7742,-0.7752,-0.7752,-0.7741,-0.7739,-0.7759,-0.7761,-0.7764,-0.7798,-0.7769,-0.777,-0.7771,-0.7845,-0.7846,-0.7847,0,0,0,0,0,0,-0.7708,-0.7712,-0.7743,-0.7728,-0.7732,-0.7734,-0.7743,-0.7743,-0.7749,-0.7753,-0.7754,-0.7746,-0.7758,-0.7762,-0.7784,-0.7799,-0.7771,-0.7773,-0.7844,-0.7845,-0.7847,-0.7867,0,0,0,0,0,0,-0.7707,-0.7712,-0.7722,-0.7729,-0.7733,-0.7763,-0.7744,-0.7744,-0.7752,-0.775,-0.7759,-0.7759,-0.7758,-0.7782,-0.7786,-0.7801,-0.7774,-0.7842,-0.7844,-0.7846,-0.7865,-0.7869,-0.7873,0,0,0,0,0,-0.7705,-0.7727,-0.7722,-0.7726,-0.7746,-0.7763,-0.7766,-0.7764,-0.7753,-0.7764,-0.7767,-0.7759,-0.7796,-0.7784,-0.7788,-0.7804,-0.7841,-0.7844,-0.7846,-0.7863,-0.7868,-0.7873,0,0,0,0,0,0,-0.7723,-0.7728,-0.7723,-0.7747,-0.7755,-0.7761,-0.7774,-0.7769,-0.778,-0.7778,-0.7775,-0.7777,-0.7801,-0.7804,-0.7791,-0.7832,-0.7817,-0.7821,-0.7829,-0.7834,-0.7837,-0.7836,-0.7775,0,0,0,0,0,-0.7729,-0.7742,-0.7747,-0.7768,-0.7772,-0.7773,-0.778,-0.7778,-0.7786,-0.7789,-0.7793,-0.7802,-0.7816,-0.7825,-0.7838,-0.7865,-0.7868,-0.7879,-0.7882,-0.7885,-0.7888,-0.7904,-0.7909,-0.7855,-0.7855,-0.7855,0,0,-0.7743,-0.7748,-0.7756,-0.7771,-0.7777,-0.7792,-0.7775,-0.7791,-0.7802,-0.7792,-0.7813,-0.7817,-0.7826,-0.7851,-0.7863,-0.7856,-0.7904,-0.7888,-0.7891,-0.7892,-0.7907,-0.7912,-0.7917,-0.7856,-0.7856,-0.7856,0,0,-0.7776,-0.778,-0.7799,-0.7805,-0.7813,-0.7814,-0.7818,-0.7825,-0.7827,-0.7848,-0.7841,-0.7854,-0.7878,-0.7885,-0.7892,-0.7928,-0.7922,-0.7932,-0.7952,-0.7967,-0.7972,-0.7976,-0.7989,-0.7994,-0.7935,-0.7935,-0.7935,0,-0.7793,-0.7813,-0.7809,-0.7826,-0.7833,-0.7824,-0.7843,-0.7849,-0.7862,-0.7867,-0.7859,-0.7888,-0.7894,-0.7922,-0.793,-0.7936,-0.7942,-0.7931,-0.7971,-0.7975,-0.7979,-0.7992,-0.7997,-0.7936,-0.7936,-0.7936,-0.7936,0,-0.7834,-0.7848,-0.7862,-0.7874,-0.7883,-0.7901,-0.7901,-0.791,-0.7907,-0.7908,-0.7931,-0.7937,-0.7952,-0.7958,-0.7955,-0.7985,-0.798,-0.7972,-0.7956,-0.7985,-0.7997,-0.8002,-0.7938,-0.7938,-0.7937,-0.7937,0,0,-0.7878,-0.7888,-0.7893,-0.7899,-0.7907,-0.7919,-0.7937,-0.795,-0.7959,-0.7968,-0.7984,-0.8004,-0.7996,-0.8004,-0.8002,-0.8015,-0.8045,-0.8005,-0.8005,-0.8013,-0.8079,-0.8086,-0.8092,-0.804,-0.8041,-0.8042,-0.8079,0,-0.7912,-0.7943,-0.794,-0.7969,-0.7983,-0.7974,-0.799,-0.7997,-0.7999,-0.8012,-0.8014,-0.8029,-0.8017,-0.8022,-0.8035,-0.8038,-0.8058,-0.8035,-0.8056,-0.8056,-0.8054,-0.8098,-0.8106,-0.814,-0.8084,-0.8084,-0.8085,0,-0.7956,-0.7966,-0.7997,-0.8004,-0.8009,-0.8024,-0.8036,-0.8048,-0.8057,-0.8057,-0.8066,-0.8062,-0.8081,-0.8065,-0.8091,-0.8076,-0.8084,-0.8087,-0.8088,-0.8091,-0.8073,-0.8103,-0.8151,-0.8157,-0.8092,-0.8092,-0.8091,0,-0.7987,-0.8008,-0.8029,-0.8034,-0.8042,-0.8053,-0.8057,-0.8065,-0.8073,-0.8084,-0.809,-0.8103,-0.8111,-0.8122,-0.8121,-0.811,-0.8149,-0.8132,-0.815,-0.8151,-0.816,-0.8159,-0.8211,-0.8164,-0.8163,-0.8163,-0.8163,0,-0.8025,-0.8044,-0.8043,-0.8056,-0.8077,-0.8074,-0.8096,-0.8099,-0.8106,-0.812,-0.8113,-0.8127,-0.8125,-0.8139,-0.8139,-0.8162,-0.8165,-0.8167,-0.8167,-0.8168,-0.8168,-0.8174,-0.8172,-0.8165,-0.8164,-0.8164,-0.8164,0,-0.8063,-0.8063,-0.8085,-0.8092,-0.8094,-0.8109,-0.8115,-0.8128,-0.8129,-0.8147,-0.8151,-0.8154,-0.817,-0.8171,-0.8189,-0.8189,-0.8217,-0.8214,-0.8214,-0.8214,-0.8232,-0.823,-0.829,-0.8298,-0.8245,-0.8245,-0.8245,0,-0.8088,-0.8103,-0.8111,-0.8119,-0.8124,-0.8138,-0.8147,-0.8144,-0.8153,-0.8165,-0.8176,-0.8192,-0.8204,-0.823,-0.8234,-0.8249,-0.8246,-0.8266,-0.8249,-0.825,-0.8248,-0.8247,-0.8249,-0.827,-0.827,-0.8271,-0.8271,0,-0.8133,-0.8132,-0.8145,-0.8157,-0.8167,-0.8177,-0.8186,-0.8194,-0.8192,-0.8203,-0.8219,-0.8229,-0.8248,-0.8264,-0.8278,-0.8283,-0.8277,-0.8277,-0.8282,-0.8284,-0.8283,-0.8285,-0.8224,-0.8275,-0.8275,-0.8275,-0.8275,-0.8274,-0.8167,-0.8179,-0.8187,-0.8201,-0.8207,-0.8216,-0.8228,-0.8231,-0.8244,-0.8259,-0.8257,-0.8275,-0.8284,-0.8302,-0.8308,-0.8323,-0.8317,-0.8324,-0.8326,-0.8328,-0.833,-0.828,-0.8326,-0.8326,-0.8325,-0.8325,-0.8325,0,-0.8212,-0.8216,-0.8229,-0.8241,-0.8253,-0.8245,-0.8255,-0.8265,-0.8281,-0.829,-0.8302,-0.8321,-0.8336,-0.8341,-0.8356,-0.8367,-0.8365,-0.8371,-0.8371,-0.8372,-0.8335,-0.8329,-0.8373,-0.8373,-0.8373,-0.8373,-0.8373,-0.8373,-0.8237,-0.8258,-0.8258,-0.8283,-0.8287,-0.8304,-0.8311,-0.8319,-0.8326,-0.8347,-0.8359,-0.8362,-0.837,-0.8385,-0.8399,-0.8401,-0.8407,-0.8414,-0.8415,-0.838,-0.8375,-0.837,-0.8365,-0.8415,-0.8416,-0.8451,-0.8451,-0.8452]},{"header":{"parameterUnit":"m.s-1","parameterCategory":1,"la1":30.2991,"la2":30.254,"lo1":-89.0895,"lo2":-89.0444,"dy":0.0017,"dx":0.0017,"nx":28,"ny":28,"refTime":"2025-09-15T21:00:00:Z","depth":0,"parameterNumber":3,"parameterNumberName":"V-component_of_WINDS"},"data":[0,0,0,0,0,0,0,0,0,0,0,0,0,0,0,0,0,0,0,0,0,0,0,0,0,0,0,0,0,0,0,0,0,0,0,0,0,0,0,0,0,0,0,0,0,0,0,0,0,0,0,0,0,0,0,0,0,0,3.9998,3.9997,0,3.994,3.9939,3.9939,3.987,3.9869,3.9868,3.9867,3.9805,3.9804,3.9804,0,0,0,0,0,0,0,0,0,0,0,0,0,4.0046,4.0045,3.9998,3.9997,3.9996,3.994,3.9939,3.9939,3.987,3.9869,3.9867,3.9866,3.9805,3.9804,3.9804,0,0,0,0,0,0,0,0,0,0,0,0,0,4.001,4.0045,3.9998,3.9955,3.9951,3.994,3.9939,3.9938,3.987,3.9869,3.9867,3.9866,3.9805,3.9804,3.9803,3.9829,0,0,3.98,3.98,0,0,0,0,0,0,0,0,4.0012,4.0008,3.9962,3.9958,3.9953,3.991,3.9934,3.9902,3.9871,3.9901,3.9867,3.9865,3.9841,3.9837,3.983,3.9826,3.9824,3.98,3.98,3.9799,3.9799,0,0,0,0,0,0,0,4.0015,4.001,3.9975,3.9962,3.9956,3.9938,3.9931,3.9927,3.988,3.9898,3.9893,3.9887,3.9838,3.9831,3.9828,3.9823,3.98,3.9799,3.9799,3.9798,3.9836,3.9838,0,0,0,0,0,0,4.0024,4.0013,3.9977,3.9973,3.998,3.9939,3.9931,3.9926,3.988,3.9872,3.9889,3.9884,3.9833,3.9829,3.9825,3.9851,3.9799,3.9798,3.9798,3.9835,3.9837,3.9838,0,0,0,0,0,0,4.0025,4.0021,3.9979,3.9992,3.9985,3.994,3.9934,3.9925,3.9918,3.9873,3.9864,3.989,3.9832,3.9827,3.9829,3.9848,3.9798,3.9797,3.9833,3.9835,3.9837,3.9904,0,0,0,0,0,0,4.0027,4.0022,4.0032,3.9992,3.9984,3.9984,3.9935,3.9925,3.9917,3.991,3.9872,3.9864,3.983,3.9831,3.9828,3.9846,3.9796,3.9831,3.9834,3.9837,3.99,3.9909,3.9916,0,0,0,0,0,4.0029,4.0053,4.0033,4.0029,3.9996,3.9985,3.9981,3.9942,3.9919,3.9928,3.9899,3.9865,3.9847,3.9831,3.9828,3.9846,3.9829,3.9833,3.9836,3.9897,3.9907,3.9916,0,0,0,0,0,0,4.0095,4.0047,4.0024,4.0036,4.0016,3.9974,3.9984,3.9955,3.994,3.9934,3.9886,3.9878,3.9886,3.9866,3.9849,3.9868,3.9833,3.9836,3.988,3.989,3.9898,3.9901,3.9795,0,0,0,0,0,4.0111,4.0108,4.0065,4.008,4.0071,4.003,4.0024,3.9996,3.9972,3.9963,3.9934,3.9912,3.9901,3.9894,3.9882,3.9898,3.9887,3.9908,3.9916,3.9923,3.9926,3.9931,3.994,3.985,3.985,3.985,0,0,4.0144,4.0117,4.0118,4.0092,4.0073,4.007,4.0022,4.0021,4.0017,3.9962,3.9962,3.9941,3.9912,3.9921,3.9923,3.9905,3.9949,3.9928,3.9934,3.9932,3.9936,3.9945,3.9952,3.9853,3.9852,3.9852,0,0,4.0202,4.0182,4.0191,4.0173,4.0145,4.0118,4.012,4.0083,4.0067,4.0067,4.0025,4.002,4.0002,3.9984,3.9972,4.0023,3.9991,4.0021,4.0062,4.0068,4.0075,4.0081,4.0098,4.0105,4.0024,4.0024,4.0024,0,4.0246,4.0239,4.02,4.02,4.019,4.0142,4.015,4.0134,4.0104,4.0097,4.0077,4.0054,4.0032,4.0035,4.0048,4.004,4.004,4.0024,4.0077,4.0083,4.0088,4.0103,4.011,4.0028,4.0027,4.0027,4.0027,0,4.0294,4.029,4.0301,4.0274,4.0265,4.027,4.023,4.0226,4.0199,4.0174,4.0173,4.0145,4.0126,4.0125,4.0099,4.0124,4.0113,4.0086,4.005,4.0101,4.0114,4.012,4.0033,4.0032,4.0031,4.003,0,0,4.039,4.0341,4.0346,4.0332,4.0298,4.0294,4.0297,4.0279,4.0275,4.0256,4.0256,4.0243,4.0217,4.0204,4.0175,4.0181,4.0222,4.0153,4.0151,4.0165,4.0247,4.0267,4.0274,4.0202,4.0203,4.0203,4.0249,0,4.044,4.0442,4.0407,4.0418,4.0414,4.0368,4.037,4.0349,4.0325,4.0317,4.0291,4.0282,4.025,4.0241,4.0245,4.0217,4.0238,4.0213,4.0199,4.0199,4.0206,4.0282,4.0302,4.0347,4.0254,4.0255,4.0256,0,4.0499,4.0483,4.0495,4.046,4.0457,4.0459,4.044,4.0433,4.0408,4.039,4.0376,4.0344,4.0343,4.031,4.0307,4.0291,4.0284,4.0269,4.027,4.0265,4.023,4.0278,4.036,4.0366,4.0264,4.0264,4.0263,0,4.0566,4.0548,4.0552,4.0543,4.0503,4.0505,4.0489,4.0462,4.0453,4.0436,4.043,4.0413,4.0403,4.039,4.0354,4.0334,4.0355,4.0319,4.0338,4.0339,4.0343,4.0343,4.0424,4.0342,4.0342,4.0342,4.0341,0,4.0625,4.0633,4.0582,4.0584,4.0592,4.0552,4.056,4.0539,4.0516,4.0512,4.0472,4.0469,4.0422,4.0414,4.0386,4.0387,4.0383,4.0368,4.036,4.037,4.0372,4.0363,4.0359,4.0343,4.0343,4.0343,4.0342,0,4.07,4.0667,4.0668,4.0631,4.0621,4.0629,4.0596,4.0596,4.057,4.0567,4.0563,4.0523,4.0511,4.0474,4.0453,4.0434,4.0443,4.0429,4.0452,4.0446,4.0467,4.0465,4.0544,4.0551,4.0466,4.0467,4.0468,0,4.0739,4.0744,4.0708,4.0703,4.0688,4.0682,4.0673,4.0633,4.0626,4.0598,4.0601,4.0587,4.0573,4.0556,4.0524,4.0508,4.0492,4.0521,4.0489,4.0499,4.049,4.049,4.0489,4.0527,4.0528,4.0529,4.053,0,4.0811,4.0794,4.0784,4.0768,4.0759,4.0744,4.0727,4.0725,4.0681,4.0674,4.0663,4.0652,4.0631,4.0617,4.0595,4.0576,4.0545,4.054,4.0543,4.0553,4.0566,4.0558,4.0469,4.0538,4.0537,4.0537,4.0536,4.0536,4.0868,4.087,4.0845,4.0835,4.0818,4.0803,4.0801,4.0776,4.0766,4.0746,4.0724,4.0714,4.0688,4.0657,4.064,4.0632,4.0615,4.062,4.0621,4.0622,4.0627,4.0569,4.0628,4.0627,4.0627,4.0627,4.0627,0,4.0937,4.0918,4.0909,4.0887,4.0879,4.0852,4.0832,4.0826,4.0819,4.0798,4.0786,4.0772,4.0758,4.0725,4.0708,4.0707,4.0692,4.0704,4.0702,4.0698,4.0644,4.0642,4.0716,4.0716,4.0716,4.0716,4.0716,4.0716,4.0971,4.0974,4.0954,4.0948,4.0929,4.092,4.0911,4.0896,4.088,4.0866,4.0855,4.0834,4.0808,4.0789,4.0774,4.0765,4.076,4.0776,4.0761,4.0711,4.0702,4.0694,4.0692,4.0775,4.0775,4.0816,4.0817,4.0817]}]]